Terminal Aerodrome Forecast
Issued by NWS Billings, MT

Home | Current Version | Previous Version | Text Only | Print | Product List | Glossary Off
Versions: 1 2 3 4 5 6 7 8 9 10 11 12

000
FTUS45 KBYZ 021120
TAFMLS
TAF
KMLS 021120Z 0212/0312 17003KT P6SM SKC
     FM021500 32010KT P6SM SCT200
     FM021800 32016KT P6SM SCT150
     FM030300 30006KT P6SM FEW200=

USA.gov is the U.S. government's official web portal to all federal, state and local government web resources and services.